Tracking 21473 objects as of 27-Sep-2020
HD Live streaming from Space Station
objects crossing your sky now

MARS 2020


MARS 2020 is no longer on orbit


NORAD ID: 45983
Int'l Code: 2020-052A
Perigee: N/A
Apogee: N/A
Inclination: N/A
Period: N/A
Semi major axis: N/A
RCS: N/A
Launch date: July 30, 2020
Source: United States (US)
Launch site: AIR FORCE EASTERN TEST RANGE (AFETR)
Decay date: 2020-07-31
aabbcc
Your satellite tracking list
Your tracking list is empty




NASA's NSSDC Master Catalog

Two Line Element Set (TLE):
1 45983U 20052A   20212.56905538 -.00000119  00000-0  00000+0 0  9997
2 45983  32.2087 317.6209 0065000 265.1078 118.6367  1.42484766    16
Source of the keplerian elements: AFSPC